owner,sensor,date,latitude,longitude,vertical_datum,sea_water_temperature,qcFlag
Beacon,ioos:station:wmo:42874:2,2022-01-01T00:09:00Z,27.0318,-90.9902,30.0,26.1,11111222
Beacon,ioos:station:wmo:42874:2,2022-01-01T00:19:00Z,27.0318,-90.9902,30.0,26.1,11111222
Beacon,ioos:station:wmo:42874:2,2022-01-01T00:29:00Z,27.0318,-90.9902,30.0,26.1,11111222
Beacon,ioos:station:wmo:42874:2,2022-01-01T00:39:00Z,27.0317,-90.9902,30.0,26.1,11111222
Beacon,ioos:station:wmo:42874:2,2022-01-01T00:49:00Z,27.0317,-90.9902,30.0,26.1,11111222
Beacon,ioos:station:wmo:42874:2,2022-01-01T00:59:00Z,27.0317,-90.9902,30.0,26.1,11111222
Beacon,ioos:station:wmo:42874:2,2022-01-01T01:08:00Z,27.0317,-90.9902,30.0,26.1,11111222
Beacon,ioos:station:wmo:42874:2,2022-01-01T01:20:00Z,27.0318,-90.9902,30.0,26.1,11111222
Beacon,ioos:station:wmo:42874:2,2022-01-01T01:29:00Z,27.0318,-90.9902,30.0,26.1,11111222
Beacon,ioos:station:wmo:42874:2,2022-01-01T01:39:00Z,27.0318,-90.9902,30.0,26.1,11111222
Beacon,ioos:station:wmo:42874:2,2022-01-01T01:48:00Z,27.0318,-90.9903,30.0,26.1,11111222
Beacon,ioos:station:wmo:42874:2,2022-01-01T01:58:00Z,27.0318,-90.9902,30.0,26.1,11111222
Beacon,ioos:station:wmo:42874:2,2022-01-01T02:09:00Z,27.0318,-90.9902,30.0,26.1,11111222
Beacon,ioos:station:wmo:42874:2,2022-01-01T02:19:00Z,27.0317,-90.9902,30.0,26.1,11111222
Beacon,ioos:station:wmo:42874:2,2022-01-01T02:29:00Z,27.0317,-90.9902,30.0,26.1,11111222
Beacon,ioos:station:wmo:42874:2,2022-01-01T02:37:00Z,27.0316,-90.9902,30.0,26.1,11111222
Beacon,ioos:station:wmo:42874:2,2022-01-01T02:49:00Z,27.0318,-90.9903,30.0,26.1,11111222
Beacon,ioos:station:wmo:42874:2,2022-01-01T02:59:00Z,27.0317,-90.9902,30.0,26.1,11111222
Beacon,ioos:station:wmo:42874:2,2022-01-01T03:09:00Z,27.0317,-90.9902,30.0,26.1,11111222
Beacon,ioos:station:wmo:42874:2,2022-01-01T03:18:00Z,27.0317,-90.9902,30.0,26.1,11111222
Beacon,ioos:station:wmo:42874:2,2022-01-01T03:29:00Z,27.0318,-90.9902,30.0,26.1,11111222
Beacon,ioos:station:wmo:42874:2,2022-01-01T03:38:00Z,27.0317,-90.9902,30.0,26.1,11111222
Beacon,ioos:station:wmo:42874:2,2022-01-01T03:49:00Z,27.0318,-90.9902,30.0,26.1,11111222
Beacon,ioos:station:wmo:42874:2,2022-01-01T03:59:00Z,27.0317,-90.9902,30.0,26.1,11111222
Beacon,ioos:station:wmo:42874:2,2022-01-01T04:08:00Z,27.0317,-90.9902,30.0,26.1,11111222
Beacon,ioos:station:wmo:42874:2,2022-01-01T04:18:00Z,27.0317,-90.9902,30.0,26.1,11111222
Beacon,ioos:station:wmo:42874:2,2022-01-01T04:28:00Z,27.0317,-90.9902,30.0,26.1,11111222
Beacon,ioos:station:wmo:42874:2,2022-01-01T04:39:00Z,27.0317,-90.9902,30.0,26.1,11111222
Beacon,ioos:station:wmo:42874:2,2022-01-01T04:48:00Z,27.0317,-90.9902,30.0,26.1,11111222
Beacon,ioos:station:wmo:42874:2,2022-01-01T04:58:00Z,27.0317,-90.9902,30.0,26.1,11111222
Beacon,ioos:station:wmo:42874:2,2022-01-01T05:08:00Z,27.0317,-90.9903,30.0,26.1,11111222
Beacon,ioos:station:wmo:42874:2,2022-01-01T05:18:00Z,27.0316,-90.9903,30.0,26.1,11111222
Beacon,ioos:station:wmo:42874:2,2022-01-01T05:28:00Z,27.0317,-90.9903,30.0,26.1,11111222
Beacon,ioos:station:wmo:42874:2,2022-01-01T05:39:00Z,27.0318,-90.9903,30.0,26.1,11111222
Beacon,ioos:station:wmo:42874:2,2022-01-01T05:49:00Z,27.0318,-90.9903,30.0,26.1,11111222
Beacon,ioos:station:wmo:42874:2,2022-01-01T05:59:00Z,27.0317,-90.9903,30.0,26.1,11111222
Beacon,ioos:station:wmo:42874:2,2022-01-01T06:09:00Z,27.0317,-90.9903,30.0,26.1,11111222
Beacon,ioos:station:wmo:42874:2,2022-01-01T06:19:00Z,27.0316,-90.9903,30.0,26.1,11111222
Beacon,ioos:station:wmo:42874:2,2022-01-01T06:30:00Z,27.0317,-90.9903,30.0,26.1,11111222
Beacon,ioos:station:wmo:42874:2,2022-01-01T06:39:00Z,27.0317,-90.9903,30.0,26.1,11111222
Beacon,ioos:station:wmo:42874:2,2022-01-01T06:49:00Z,27.0319,-90.9903,30.0,26.1,11111222
Beacon,ioos:station:wmo:42874:2,2022-01-01T06:59:00Z,27.0319,-90.9903,30.0,26.1,11111222
Beacon,ioos:station:wmo:42874:2,2022-01-01T07:08:00Z,27.0317,-90.9903,30.0,26.1,11111222
Beacon,ioos:station:wmo:42874:2,2022-01-01T07:18:00Z,27.0317,-90.9903,30.0,26.1,11111222
Beacon,ioos:station:wmo:42874:2,2022-01-01T07:29:00Z,27.0317,-90.9903,30.0,26.1,11111222
Beacon,ioos:station:wmo:42874:2,2022-01-01T07:38:00Z,27.0317,-90.9903,30.0,26.1,11111222
Beacon,ioos:station:wmo:42874:2,2022-01-01T07:49:00Z,27.0317,-90.9903,30.0,26.1,11111222
Beacon,ioos:station:wmo:42874:2,2022-01-01T07:58:00Z,27.0316,-90.9902,30.0,26.1,11111222
Beacon,ioos:station:wmo:42874:2,2022-01-01T08:08:00Z,27.0317,-90.9904,30.0,26.1,11111222
Beacon,ioos:station:wmo:42874:2,2022-01-01T08:18:00Z,27.0317,-90.9904,30.0,26.1,11111222
Beacon,ioos:station:wmo:42874:2,2022-01-01T08:29:00Z,27.0317,-90.9902,30.0,26.1,11111222
Beacon,ioos:station:wmo:42874:2,2022-01-01T08:39:00Z,27.0317,-90.9902,30.0,26.1,11111222
Beacon,ioos:station:wmo:42874:2,2022-01-01T08:49:00Z,27.0316,-90.9903,30.0,26.1,11111222
Beacon,ioos:station:wmo:42874:2,2022-01-01T08:59:00Z,27.0317,-90.9903,30.0,26.1,11111222
Beacon,ioos:station:wmo:42874:2,2022-01-01T09:10:00Z,27.0316,-90.9903,30.0,26.1,11111222
Beacon,ioos:station:wmo:42874:2,2022-01-01T09:18:00Z,27.0316,-90.9903,30.0,26.1,11111222
Beacon,ioos:station:wmo:42874:2,2022-01-01T09:29:00Z,27.0316,-90.9903,30.0,26.2,11111222
Beacon,ioos:station:wmo:42874:2,2022-01-01T09:39:00Z,27.0319,-90.9907,30.0,26.2,11111222
Beacon,ioos:station:wmo:42874:2,2022-01-01T09:48:00Z,27.0319,-90.9907,30.0,26.2,11111222
Beacon,ioos:station:wmo:42874:2,2022-01-01T09:58:00Z,27.0319,-90.9906,30.0,26.2,11111222
Beacon,ioos:station:wmo:42874:2,2022-01-01T10:08:00Z,27.0320,-90.9906,30.0,26.2,11111222
Beacon,ioos:station:wmo:42874:2,2022-01-01T10:18:00Z,27.0320,-90.9906,30.0,26.2,11111222
Beacon,ioos:station:wmo:42874:2,2022-01-01T10:29:00Z,27.0320,-90.9906,30.0,26.2,11111222
Beacon,ioos:station:wmo:42874:2,2022-01-01T10:39:00Z,27.0320,-90.9906,30.0,26.2,11111222
Beacon,ioos:station:wmo:42874:2,2022-01-01T10:50:00Z,27.0320,-90.9906,30.0,26.2,11111222
Beacon,ioos:station:wmo:42874:2,2022-01-01T10:58:00Z,27.0320,-90.9906,30.0,26.2,11111222
Beacon,ioos:station:wmo:42874:2,2022-01-01T11:09:00Z,27.0320,-90.9906,30.0,26.3,11111222
Beacon,ioos:station:wmo:42874:2,2022-01-01T11:18:00Z,27.0316,-90.9903,30.0,26.3,11111222
Beacon,ioos:station:wmo:42874:2,2022-01-01T11:29:00Z,27.0317,-90.9904,30.0,26.3,11111222
Beacon,ioos:station:wmo:42874:2,2022-01-01T11:39:00Z,27.0317,-90.9904,30.0,26.3,11111222
Beacon,ioos:station:wmo:42874:2,2022-01-01T11:49:00Z,27.0317,-90.9903,30.0,26.3,11111222
Beacon,ioos:station:wmo:42874:2,2022-01-01T11:58:00Z,27.0317,-90.9903,30.0,26.3,11111222
Beacon,ioos:station:wmo:42874:2,2022-01-01T12:09:00Z,27.0317,-90.9903,30.0,26.3,11111222
Beacon,ioos:station:wmo:42874:2,2022-01-01T12:18:00Z,27.0315,-90.9903,30.0,26.3,11111222
Beacon,ioos:station:wmo:42874:2,2022-01-01T12:28:00Z,27.0315,-90.9903,30.0,26.3,11111222
Beacon,ioos:station:wmo:42874:2,2022-01-01T12:38:00Z,27.0317,-90.9905,30.0,26.3,11111222
Beacon,ioos:station:wmo:42874:2,2022-01-01T12:49:00Z,27.0317,-90.9906,30.0,26.4,11111222
Beacon,ioos:station:wmo:42874:2,2022-01-01T12:59:00Z,27.0319,-90.9906,30.0,26.3,11111222
Beacon,ioos:station:wmo:42874:2,2022-01-01T13:09:00Z,27.0319,-90.9906,30.0,26.3,11111222
Beacon,ioos:station:wmo:42874:2,2022-01-01T13:18:00Z,27.0319,-90.9906,30.0,26.4,11111222
Beacon,ioos:station:wmo:42874:2,2022-01-01T13:29:00Z,27.0319,-90.9906,30.0,26.3,11111222
Beacon,ioos:station:wmo:42874:2,2022-01-01T13:39:00Z,27.0319,-90.9906,30.0,26.3,11111222
Beacon,ioos:station:wmo:42874:2,2022-01-01T13:48:00Z,27.0316,-90.9903,30.0,26.3,11111222
Beacon,ioos:station:wmo:42874:2,2022-01-01T13:58:00Z,27.0317,-90.9904,30.0,26.3,11111222
Beacon,ioos:station:wmo:42874:2,2022-01-01T14:10:00Z,27.0316,-90.9904,30.0,26.3,11111222
Beacon,ioos:station:wmo:42874:2,2022-01-01T14:18:00Z,27.0319,-90.9904,30.0,26.3,11111222
Beacon,ioos:station:wmo:42874:2,2022-01-01T14:29:00Z,27.0316,-90.9906,30.0,26.3,11111222
Beacon,ioos:station:wmo:42874:2,2022-01-01T14:39:00Z,27.0317,-90.9907,30.0,26.3,11111222
Beacon,ioos:station:wmo:42874:2,2022-01-01T14:49:00Z,27.0317,-90.9905,30.0,26.3,11111222
Beacon,ioos:station:wmo:42874:2,2022-01-01T14:58:00Z,27.0317,-90.9905,30.0,26.3,11111222
Beacon,ioos:station:wmo:42874:2,2022-01-01T15:09:00Z,27.0316,-90.9904,30.0,26.3,11111222
Beacon,ioos:station:wmo:42874:2,2022-01-01T15:18:00Z,27.0316,-90.9904,30.0,26.3,11111222
Beacon,ioos:station:wmo:42874:2,2022-01-01T15:30:00Z,27.0316,-90.9904,30.0,26.3,11111222
Beacon,ioos:station:wmo:42874:2,2022-01-01T15:40:00Z,27.0316,-90.9904,30.0,26.3,11111222
Beacon,ioos:station:wmo:42874:2,2022-01-01T15:49:00Z,27.0317,-90.9904,30.0,26.3,11111222
Beacon,ioos:station:wmo:42874:2,2022-01-01T15:58:00Z,27.0316,-90.9905,30.0,26.3,11111222
Beacon,ioos:station:wmo:42874:2,2022-01-01T16:09:00Z,27.0316,-90.9905,30.0,26.3,11111222
Beacon,ioos:station:wmo:42874:2,2022-01-01T16:19:00Z,27.0316,-90.9905,30.0,26.3,11111222
Beacon,ioos:station:wmo:42874:2,2022-01-01T16:29:00Z,27.0316,-90.9905,30.0,26.3,11111222
Beacon,ioos:station:wmo:42874:2,2022-01-01T16:39:00Z,27.0316,-90.9903,30.0,26.3,11111222
Beacon,ioos:station:wmo:42874:2,2022-01-01T16:49:00Z,27.0316,-90.9903,30.0,26.3,11111222
Beacon,ioos:station:wmo:42874:2,2022-01-01T16:59:00Z,27.0316,-90.9903,30.0,26.3,11111222
Beacon,ioos:station:wmo:42874:2,2022-01-01T17:09:00Z,27.0315,-90.9902,30.0,26.2,11111222
Beacon,ioos:station:wmo:42874:2,2022-01-01T17:19:00Z,27.0315,-90.9902,30.0,26.3,11111222
Beacon,ioos:station:wmo:42874:2,2022-01-01T17:29:00Z,27.0315,-90.9902,30.0,26.2,11111222
Beacon,ioos:station:wmo:42874:2,2022-01-01T17:38:00Z,27.0315,-90.9902,30.0,26.2,11111222
Beacon,ioos:station:wmo:42874:2,2022-01-01T17:48:00Z,27.0317,-90.9905,30.0,26.2,11111222
Beacon,ioos:station:wmo:42874:2,2022-01-01T17:59:00Z,27.0317,-90.9904,30.0,26.2,11111222
Beacon,ioos:station:wmo:42874:2,2022-01-01T18:09:00Z,27.0317,-90.9904,30.0,26.2,11111222
Beacon,ioos:station:wmo:42874:2,2022-01-01T18:19:00Z,27.0316,-90.9905,30.0,26.2,11111222
Beacon,ioos:station:wmo:42874:2,2022-01-01T18:29:00Z,27.0316,-90.9905,30.0,26.2,11111222
Beacon,ioos:station:wmo:42874:2,2022-01-01T18:39:00Z,27.0316,-90.9905,30.0,26.2,11111222
Beacon,ioos:station:wmo:42874:2,2022-01-01T18:50:00Z,27.0316,-90.9904,30.0,26.2,11111222
Beacon,ioos:station:wmo:42874:2,2022-01-01T18:59:00Z,27.0316,-90.9904,30.0,26.2,11111222
Beacon,ioos:station:wmo:42874:2,2022-01-01T19:08:00Z,27.0316,-90.9904,30.0,26.2,11111222
Beacon,ioos:station:wmo:42874:2,2022-01-01T19:19:00Z,27.0316,-90.9904,30.0,26.2,11111222
Beacon,ioos:station:wmo:42874:2,2022-01-01T19:29:00Z,27.0316,-90.9904,30.0,26.2,11111222
Beacon,ioos:station:wmo:42874:2,2022-01-01T19:39:00Z,27.0316,-90.9905,30.0,26.2,11111222
Beacon,ioos:station:wmo:42874:2,2022-01-01T19:49:00Z,27.0316,-90.9905,30.0,26.2,11111222
Beacon,ioos:station:wmo:42874:2,2022-01-01T19:59:00Z,27.0317,-90.9904,30.0,26.2,11111222
Beacon,ioos:station:wmo:42874:2,2022-01-01T20:09:00Z,27.0316,-90.9903,30.0,26.2,11111222
Beacon,ioos:station:wmo:42874:2,2022-01-01T20:19:00Z,27.0316,-90.9903,30.0,26.2,11111222
Beacon,ioos:station:wmo:42874:2,2022-01-01T20:29:00Z,27.0319,-90.9904,30.0,26.2,11111222
Beacon,ioos:station:wmo:42874:2,2022-01-01T20:39:00Z,27.0319,-90.9904,30.0,26.2,11111222
Beacon,ioos:station:wmo:42874:2,2022-01-01T20:48:00Z,27.0319,-90.9904,30.0,26.2,11111222
Beacon,ioos:station:wmo:42874:2,2022-01-01T20:59:00Z,27.0319,-90.9904,30.0,26.2,11111222
Beacon,ioos:station:wmo:42874:2,2022-01-01T21:09:00Z,27.0318,-90.9905,30.0,26.2,11111222
Beacon,ioos:station:wmo:42874:2,2022-01-01T21:19:00Z,27.0318,-90.9905,30.0,26.2,11111222
Beacon,ioos:station:wmo:42874:2,2022-01-01T21:29:00Z,27.0316,-90.9903,30.0,26.2,11111222
Beacon,ioos:station:wmo:42874:2,2022-01-01T21:39:00Z,27.0315,-90.9898,30.0,26.2,11111222
Beacon,ioos:station:wmo:42874:2,2022-01-01T21:49:00Z,27.0315,-90.9898,30.0,26.2,11111222
Beacon,ioos:station:wmo:42874:2,2022-01-01T21:59:00Z,27.0317,-90.9904,30.0,26.2,11111222
Beacon,ioos:station:wmo:42874:2,2022-01-01T22:09:00Z,27.0317,-90.9904,30.0,26.2,11111222
Beacon,ioos:station:wmo:42874:2,2022-01-01T22:18:00Z,27.0317,-90.9904,30.0,26.2,11111222
Beacon,ioos:station:wmo:42874:2,2022-01-01T22:29:00Z,27.0317,-90.9903,30.0,26.2,11111222
Beacon,ioos:station:wmo:42874:2,2022-01-01T22:39:00Z,27.0318,-90.9904,30.0,26.2,11111222
Beacon,ioos:station:wmo:42874:2,2022-01-01T22:49:00Z,27.0318,-90.9904,30.0,26.2,11111222
Beacon,ioos:station:wmo:42874:2,2022-01-01T23:00:00Z,27.0317,-90.9904,30.0,26.2,11111222
Beacon,ioos:station:wmo:42874:2,2022-01-01T23:09:00Z,27.0316,-90.9903,30.0,26.2,11111222
Beacon,ioos:station:wmo:42874:2,2022-01-01T23:19:00Z,27.0317,-90.9903,30.0,26.1,11111222
Beacon,ioos:station:wmo:42874:2,2022-01-01T23:28:00Z,27.0317,-90.9903,30.0,26.2,11111222
Beacon,ioos:station:wmo:42874:2,2022-01-01T23:39:00Z,27.0316,-90.9904,30.0,26.2,11111222
Beacon,ioos:station:wmo:42874:2,2022-01-01T23:49:00Z,27.0316,-90.9904,30.0,26.1,11111222
Beacon,ioos:station:wmo:42874:2,2022-01-01T23:59:00Z,27.0316,-90.9904,30.0,26.1,11111222
Beacon,ioos:station:wmo:42874:2,2022-01-02T00:09:00Z,27.0316,-90.9904,30.0,26.1,11111222
Beacon,ioos:station:wmo:42874:2,2022-01-02T00:19:00Z,27.0317,-90.9904,30.0,26.1,11111222
Beacon,ioos:station:wmo:42874:2,2022-01-02T00:28:00Z,27.0318,-90.9904,30.0,26.1,11111222
Beacon,ioos:station:wmo:42874:2,2022-01-02T00:39:00Z,27.0318,-90.9904,30.0,26.1,11111222
Beacon,ioos:station:wmo:42874:2,2022-01-02T00:49:00Z,27.0318,-90.9904,30.0,26.1,11111222
Beacon,ioos:station:wmo:42874:2,2022-01-02T00:59:00Z,27.0317,-90.9903,30.0,26.1,11111222
Beacon,ioos:station:wmo:42874:2,2022-01-02T01:09:00Z,27.0315,-90.9902,30.0,26.2,11111222
Beacon,ioos:station:wmo:42874:2,2022-01-02T01:19:00Z,27.0324,-90.9906,30.0,26.1,11111222
Beacon,ioos:station:wmo:42874:2,2022-01-02T01:29:00Z,27.0319,-90.9904,30.0,26.2,11111222
Beacon,ioos:station:wmo:42874:2,2022-01-02T01:39:00Z,27.0319,-90.9904,30.0,26.2,11111222
Beacon,ioos:station:wmo:42874:2,2022-01-02T01:48:00Z,27.0319,-90.9904,30.0,26.2,11111222
Beacon,ioos:station:wmo:42874:2,2022-01-02T01:58:00Z,27.0319,-90.9904,30.0,26.2,11111222
Beacon,ioos:station:wmo:42874:2,2022-01-02T02:08:00Z,27.0319,-90.9905,30.0,26.2,11111222
Beacon,ioos:station:wmo:42874:2,2022-01-02T02:19:00Z,27.0319,-90.9905,30.0,26.2,11111222
Beacon,ioos:station:wmo:42874:2,2022-01-02T02:29:00Z,27.0319,-90.9905,30.0,26.2,11111222
Beacon,ioos:station:wmo:42874:2,2022-01-02T02:38:00Z,27.0315,-90.9902,30.0,26.2,11111222
Beacon,ioos:station:wmo:42874:2,2022-01-02T02:49:00Z,27.0316,-90.9903,30.0,26.2,11111222
Beacon,ioos:station:wmo:42874:2,2022-01-02T02:59:00Z,27.0316,-90.9903,30.0,26.2,11111222
Beacon,ioos:station:wmo:42874:2,2022-01-02T03:08:00Z,27.0316,-90.9903,30.0,26.2,11111222
Beacon,ioos:station:wmo:42874:2,2022-01-02T03:19:00Z,27.0316,-90.9903,30.0,26.2,11111222
Beacon,ioos:station:wmo:42874:2,2022-01-02T03:29:00Z,27.0316,-90.9903,30.0,26.2,11111222
Beacon,ioos:station:wmo:42874:2,2022-01-02T03:39:00Z,27.0316,-90.9903,30.0,26.2,11111222
Beacon,ioos:station:wmo:42874:2,2022-01-02T03:49:00Z,27.0316,-90.9903,30.0,26.2,11111222
Beacon,ioos:station:wmo:42874:2,2022-01-02T03:59:00Z,27.0315,-90.9902,30.0,26.2,11111222
Beacon,ioos:station:wmo:42874:2,2022-01-02T04:08:00Z,27.0315,-90.9902,30.0,26.2,11111222
Beacon,ioos:station:wmo:42874:2,2022-01-02T04:18:00Z,27.0315,-90.9902,30.0,26.2,11111222
Beacon,ioos:station:wmo:42874:2,2022-01-02T04:29:00Z,27.0318,-90.9905,30.0,26.2,11111222
Beacon,ioos:station:wmo:42874:2,2022-01-02T04:38:00Z,27.0317,-90.9905,30.0,26.2,11111222
Beacon,ioos:station:wmo:42874:2,2022-01-02T04:49:00Z,27.0318,-90.9904,30.0,26.2,11111222
Beacon,ioos:station:wmo:42874:2,2022-01-02T04:59:00Z,27.0316,-90.9903,30.0,26.2,11111222
Beacon,ioos:station:wmo:42874:2,2022-01-02T05:08:00Z,27.0316,-90.9903,30.0,26.2,11111222
Beacon,ioos:station:wmo:42874:2,2022-01-02T05:19:00Z,27.0316,-90.9903,30.0,26.2,11111222
Beacon,ioos:station:wmo:42874:2,2022-01-02T05:28:00Z,27.0316,-90.9903,30.0,26.2,11111222
Beacon,ioos:station:wmo:42874:2,2022-01-02T05:39:00Z,27.0316,-90.9903,30.0,26.2,11111222
Beacon,ioos:station:wmo:42874:2,2022-01-02T05:49:00Z,27.0316,-90.9903,30.0,26.3,11111222
Beacon,ioos:station:wmo:42874:2,2022-01-02T05:58:00Z,27.0316,-90.9904,30.0,26.3,11111222
Beacon,ioos:station:wmo:42874:2,2022-01-02T06:08:00Z,27.0316,-90.9904,30.0,26.3,11111222
Beacon,ioos:station:wmo:42874:2,2022-01-02T06:19:00Z,27.0316,-90.9901,30.0,26.3,11111222
Beacon,ioos:station:wmo:42874:2,2022-01-02T06:29:00Z,27.0317,-90.9903,30.0,26.3,11111222
Beacon,ioos:station:wmo:42874:2,2022-01-02T06:38:00Z,27.0317,-90.9903,30.0,26.3,11111222
Beacon,ioos:station:wmo:42874:2,2022-01-02T06:48:00Z,27.0317,-90.9902,30.0,26.3,11111222
Beacon,ioos:station:wmo:42874:2,2022-01-02T06:58:00Z,27.0317,-90.9902,30.0,26.3,11111222
Beacon,ioos:station:wmo:42874:2,2022-01-02T07:09:00Z,27.0317,-90.9903,30.0,26.3,11111222
Beacon,ioos:station:wmo:42874:2,2022-01-02T07:18:00Z,27.0317,-90.9902,30.0,26.3,11111222
Beacon,ioos:station:wmo:42874:2,2022-01-02T07:28:00Z,27.0319,-90.9903,30.0,26.3,11111222
Beacon,ioos:station:wmo:42874:2,2022-01-02T07:38:00Z,27.0317,-90.9903,30.0,26.3,11111222
Beacon,ioos:station:wmo:42874:2,2022-01-02T07:48:00Z,27.0317,-90.9903,30.0,26.3,11111222
Beacon,ioos:station:wmo:42874:2,2022-01-02T07:59:00Z,27.0316,-90.9902,30.0,26.3,11111222
Beacon,ioos:station:wmo:42874:2,2022-01-02T08:09:00Z,27.0316,-90.9902,30.0,26.3,11111222
Beacon,ioos:station:wmo:42874:2,2022-01-02T08:18:00Z,27.0317,-90.9903,30.0,26.3,11111222
Beacon,ioos:station:wmo:42874:2,2022-01-02T08:28:00Z,27.0317,-90.9903,30.0,26.3,11111222
Beacon,ioos:station:wmo:42874:2,2022-01-02T08:38:00Z,27.0317,-90.9903,30.0,26.3,11111222
Beacon,ioos:station:wmo:42874:2,2022-01-02T08:49:00Z,27.0317,-90.9903,30.0,26.3,11111222
Beacon,ioos:station:wmo:42874:2,2022-01-02T08:58:00Z,27.0317,-90.9903,30.0,26.3,11111222
Beacon,ioos:station:wmo:42874:2,2022-01-02T09:09:00Z,27.0317,-90.9903,30.0,26.3,11111222
Beacon,ioos:station:wmo:42874:2,2022-01-02T09:18:00Z,27.0317,-90.9903,30.0,26.3,11111222
Beacon,ioos:station:wmo:42874:2,2022-01-02T09:29:00Z,27.0317,-90.9903,30.0,26.4,11111222
Beacon,ioos:station:wmo:42874:2,2022-01-02T09:39:00Z,27.0317,-90.9903,30.0,26.3,11111222
Beacon,ioos:station:wmo:42874:2,2022-01-02T09:49:00Z,27.0320,-90.9906,30.0,26.4,11111222
Beacon,ioos:station:wmo:42874:2,2022-01-02T09:58:00Z,27.0320,-90.9906,30.0,26.4,11111222
Beacon,ioos:station:wmo:42874:2,2022-01-02T10:09:00Z,27.0320,-90.9906,30.0,26.4,11111222
Beacon,ioos:station:wmo:42874:2,2022-01-02T10:19:00Z,27.0322,-90.9905,30.0,26.4,11111222
Beacon,ioos:station:wmo:42874:2,2022-01-02T10:28:00Z,27.0322,-90.9905,30.0,26.4,11111222
Beacon,ioos:station:wmo:42874:2,2022-01-02T10:39:00Z,27.0322,-90.9905,30.0,26.4,11111222
Beacon,ioos:station:wmo:42874:2,2022-01-02T10:48:00Z,27.0322,-90.9905,30.0,26.4,11111222
Beacon,ioos:station:wmo:42874:2,2022-01-02T10:58:00Z,27.0322,-90.9905,30.0,26.4,11111222
Beacon,ioos:station:wmo:42874:2,2022-01-02T11:09:00Z,27.0317,-90.9903,30.0,26.4,11111222
Beacon,ioos:station:wmo:42874:2,2022-01-02T11:19:00Z,27.0317,-90.9902,30.0,26.4,11111222
Beacon,ioos:station:wmo:42874:2,2022-01-02T11:28:00Z,27.0317,-90.9902,30.0,26.4,11111222
Beacon,ioos:station:wmo:42874:2,2022-01-02T11:38:00Z,27.0317,-90.9902,30.0,26.4,11111222
Beacon,ioos:station:wmo:42874:2,2022-01-02T11:48:00Z,27.0318,-90.9904,30.0,26.4,11111222
Beacon,ioos:station:wmo:42874:2,2022-01-02T11:59:00Z,27.0319,-90.9903,30.0,26.4,11111222
Beacon,ioos:station:wmo:42874:2,2022-01-02T12:08:00Z,27.0317,-90.9903,30.0,26.4,11111222
Beacon,ioos:station:wmo:42874:2,2022-01-02T12:19:00Z,27.0317,-90.9903,30.0,26.4,11111222
Beacon,ioos:station:wmo:42874:2,2022-01-02T12:28:00Z,27.0317,-90.9903,30.0,26.4,11111222
Beacon,ioos:station:wmo:42874:2,2022-01-02T12:38:00Z,27.0317,-90.9903,30.0,26.4,11111222
Beacon,ioos:station:wmo:42874:2,2022-01-02T12:48:00Z,27.0317,-90.9903,30.0,26.4,11111222
Beacon,ioos:station:wmo:42874:2,2022-01-02T12:59:00Z,27.0317,-90.9903,30.0,26.4,11111222
Beacon,ioos:station:wmo:42874:2,2022-01-02T13:08:00Z,27.0317,-90.9903,30.0,26.4,11111222
Beacon,ioos:station:wmo:42874:2,2022-01-02T13:19:00Z,27.0317,-90.9903,30.0,26.4,11111222
Beacon,ioos:station:wmo:42874:2,2022-01-02T13:29:00Z,27.0316,-90.9904,30.0,26.4,11111222
Beacon,ioos:station:wmo:42874:2,2022-01-02T13:39:00Z,27.0316,-90.9904,30.0,26.4,11111222
Beacon,ioos:station:wmo:42874:2,2022-01-02T13:48:00Z,27.0316,-90.9903,30.0,26.4,11111222
Beacon,ioos:station:wmo:42874:2,2022-01-02T13:59:00Z,27.0316,-90.9902,30.0,26.4,11111222
Beacon,ioos:station:wmo:42874:2,2022-01-02T14:09:00Z,27.0316,-90.9903,30.0,26.4,11111222
Beacon,ioos:station:wmo:42874:2,2022-01-02T14:18:00Z,27.0316,-90.9903,30.0,26.4,11111222
Beacon,ioos:station:wmo:42874:2,2022-01-02T14:28:00Z,27.0316,-90.9903,30.0,26.4,11111222
Beacon,ioos:station:wmo:42874:2,2022-01-02T14:38:00Z,27.0317,-90.9904,30.0,26.4,11111222
Beacon,ioos:station:wmo:42874:2,2022-01-02T14:49:00Z,27.0317,-90.9904,30.0,26.4,11111222
Beacon,ioos:station:wmo:42874:2,2022-01-02T15:00:00Z,27.0317,-90.9904,30.0,26.4,11111222
Beacon,ioos:station:wmo:42874:2,2022-01-02T15:08:00Z,27.0315,-90.9903,30.0,26.5,11111222
Beacon,ioos:station:wmo:42874:2,2022-01-02T15:18:00Z,27.0315,-90.9903,30.0,26.4,11111222
Beacon,ioos:station:wmo:42874:2,2022-01-02T15:29:00Z,27.0315,-90.9903,30.0,26.4,11111222
Beacon,ioos:station:wmo:42874:2,2022-01-02T15:38:00Z,27.0315,-90.9903,30.0,26.5,11111222
Beacon,ioos:station:wmo:42874:2,2022-01-02T15:49:00Z,27.0315,-90.9903,30.0,26.4,11111222
Beacon,ioos:station:wmo:42874:2,2022-01-02T15:59:00Z,27.0315,-90.9903,30.0,26.5,11111222
Beacon,ioos:station:wmo:42874:2,2022-01-02T16:08:00Z,27.0315,-90.9903,30.0,26.5,11111222
Beacon,ioos:station:wmo:42874:2,2022-01-02T16:19:00Z,27.0317,-90.9902,30.0,26.5,11111222
Beacon,ioos:station:wmo:42874:2,2022-01-02T16:29:00Z,27.0317,-90.9902,30.0,26.5,11111222
Beacon,ioos:station:wmo:42874:2,2022-01-02T16:39:00Z,27.0317,-90.9902,30.0,26.5,11111222
Beacon,ioos:station:wmo:42874:2,2022-01-02T16:48:00Z,27.0317,-90.9902,30.0,26.5,11111222
Beacon,ioos:station:wmo:42874:2,2022-01-02T16:59:00Z,27.0317,-90.9902,30.0,26.5,11111222
Beacon,ioos:station:wmo:42874:2,2022-01-02T17:09:00Z,27.0317,-90.9902,30.0,26.4,11111222
Beacon,ioos:station:wmo:42874:2,2022-01-02T17:18:00Z,27.0319,-90.9902,30.0,26.4,11111222
Beacon,ioos:station:wmo:42874:2,2022-01-02T17:28:00Z,27.0318,-90.9903,30.0,26.3,11111222
Beacon,ioos:station:wmo:42874:2,2022-01-02T17:39:00Z,27.0320,-90.9901,30.0,26.2,11111222
Beacon,ioos:station:wmo:42874:2,2022-01-02T17:49:00Z,27.0320,-90.9901,30.0,26.3,11111222
Beacon,ioos:station:wmo:42874:2,2022-01-02T17:58:00Z,27.0320,-90.9901,30.0,26.3,11111222
Beacon,ioos:station:wmo:42874:2,2022-01-02T18:09:00Z,27.0321,-90.9899,30.0,26.3,11111222
Beacon,ioos:station:wmo:42874:2,2022-01-02T18:19:00Z,27.0321,-90.9899,30.0,26.3,11111222
Beacon,ioos:station:wmo:42874:2,2022-01-02T18:28:00Z,27.0322,-90.9900,30.0,26.3,11111222
Beacon,ioos:station:wmo:42874:2,2022-01-02T18:39:00Z,27.0322,-90.9900,30.0,26.2,11111222
Beacon,ioos:station:wmo:42874:2,2022-01-02T18:48:00Z,27.0315,-90.9901,30.0,26.2,11111222
Beacon,ioos:station:wmo:42874:2,2022-01-02T18:58:00Z,27.0316,-90.9901,30.0,26.2,11111222
Beacon,ioos:station:wmo:42874:2,2022-01-02T19:08:00Z,27.0316,-90.9901,30.0,26.2,11111222
Beacon,ioos:station:wmo:42874:2,2022-01-02T19:19:00Z,27.0316,-90.9901,30.0,26.2,11111222
Beacon,ioos:station:wmo:42874:2,2022-01-02T19:28:00Z,27.0317,-90.9900,30.0,26.2,11111222
Beacon,ioos:station:wmo:42874:2,2022-01-02T19:40:00Z,27.0318,-90.9900,30.0,26.3,11111222
Beacon,ioos:station:wmo:42874:2,2022-01-02T19:50:00Z,27.0317,-90.9900,30.0,26.2,11111222
Beacon,ioos:station:wmo:42874:2,2022-01-02T19:59:00Z,27.0317,-90.9900,30.0,26.2,11111222
Beacon,ioos:station:wmo:42874:2,2022-01-02T20:08:00Z,27.0318,-90.9900,30.0,26.3,11111222